Fort Polk, LA

12:30 AM CDT on April 20, 2018 (GMT -0500)
Polk Army Air Field

Weather History for KPOE - December, 2013

Change the Weather History Date:

Sunday, December 8, 2013

  Actual Average Record
Temperature  
Mean Temperature 36 °F -  
Max Temperature 43 °F 59 °F 80 °F (2007)
Min Temperature 30 °F 41 °F 24 °F (2006)
Degree Days  
Heating Degree Days 28    
Moisture  
Dew Point 36 °F    
Average Humidity 90    
Maximum Humidity 96    
Minimum Humidity 79    
Precipitation  
Precipitation 0.00 in - - ()
Sea Level Pressure  
Sea Level Pressure 30.15 in    
Wind  
Wind Speed 4 mph (North)    
Max Wind Speed 7 mph    
Max Gust Speed -    
Visibility 8 miles    
Events Rain    
Averages and records for this station are not official NWS values.
T = Trace of Precipitation, MM = Missing Value Source: NWS Daily Summary

Daily Weather History Graph

Daily Weather History Graph

Search for Another Location

Airport or City:

Astronomy

Dec. 08, 2013 Rise Set
Actual Time 6:58 AM CST 5:10 PM CST
Civil Twilight 6:32 AM CST 5:37 PM CST
Nautical Twilight 6:02 AM CST 6:07 PM CST
Astronomical Twilight 5:32 AM CST 6:36 PM CST
Moon 11:37 AM CST (12/8) 11:40 PM CST (12/8)
Length of Visible Light 11h 04m
Length of Day
10h 11m
Waxing Crescent, 40% of the Moon is Illuminated
Dec 8
Waxing Crescent
Dec 9
First Quarter
Dec 17
Full
Dec 25
Last Quarter
Jan 1
New

Hourly Weather History & Observations

Time (CST) Temp. Windchill Dew Point Humidity Pressure Visibility Wind Dir Wind Speed Gust Speed Precip Events Conditions
12:50 AM 30.2 °F 24.3 °F 28.4 °F 93% 30.27 in 9.0 mi NW 5.8 mph - N/A   Overcast
12:55 AM 30.9 °F 25.2 °F 28.9 °F 92% 30.29 in 10.0 mi North 5.8 mph - N/A   Overcast
1:55 AM 30.9 °F - 30.0 °F 96% 30.25 in 8.0 mi Calm Calm - N/A   Overcast
2:55 AM 32.0 °F 26.4 °F 30.0 °F 92% 30.24 in 9.0 mi NNE 5.8 mph - N/A   Overcast
3:55 AM 32.0 °F 28.7 °F 30.0 °F 92% 30.21 in 8.0 mi Variable 3.5 mph - N/A   Overcast
4:55 AM 33.1 °F - 30.0 °F 89% 30.20 in 10.0 mi Calm Calm - 0.00 in   Overcast
5:15 AM 33.8 °F 30.8 °F 30.2 °F 87% 30.18 in 10.0 mi North 3.5 mph - 0.00 in   Overcast
5:44 AM 33.8 °F 27.7 °F 30.2 °F 87% 30.17 in 10.0 mi North 6.9 mph - 0.00 in   Overcast
5:52 AM 33.8 °F - 30.2 °F 87% 30.18 in 10.0 mi Calm Calm - 0.00 in   Overcast
5:55 AM 33.1 °F - 30.9 °F 92% 30.20 in 10.0 mi Calm Calm - 0.00 in   Overcast
6:55 AM 33.1 °F 28.7 °F 30.9 °F 92% 30.21 in 9.0 mi NNE 4.6 mph - N/A   Overcast
7:55 AM 33.1 °F 30.0 °F 30.9 °F 92% 30.20 in 9.0 mi ENE 3.5 mph - N/A   Overcast
8:35 AM 33.8 °F 28.6 °F 30.2 °F 87% 30.16 in 10.0 mi NNE 5.8 mph - N/A   Overcast
8:55 AM 34.0 °F 29.8 °F 32.0 °F 92% 30.18 in 10.0 mi NE 4.6 mph - N/A   Overcast
9:36 AM 37.4 °F 32.1 °F 32.0 °F 81% 30.15 in 10.0 mi North 6.9 mph - N/A   Mostly Cloudy
9:55 AM 37.0 °F 34.5 °F 32.0 °F 82% 30.19 in 10.0 mi North 3.5 mph - N/A   Mostly Cloudy
10:55 AM 39.0 °F - 34.0 °F 82% 30.18 in 8.0 mi Calm Calm - 0.00 in Rain Light Rain
11:12 AM 37.4 °F - 33.8 °F 87% 30.16 in 10.0 mi Calm Calm - 0.00 in   Overcast
11:55 AM 39.9 °F 36.7 °F 34.0 °F 79% 30.17 in 10.0 mi NNW 4.6 mph - 0.00 in   Overcast
12:55 PM 41.0 °F 38.0 °F 35.1 °F 79% 30.13 in 10.0 mi North 4.6 mph - N/A   Overcast
1:55 PM 42.1 °F 39.2 °F 36.0 °F 79% 30.09 in 10.0 mi North 4.6 mph - N/A   Overcast
2:55 PM 43.0 °F - 37.0 °F 80% 30.09 in 10.0 mi Calm Calm - N/A   Overcast
3:55 PM 43.0 °F 38.8 °F 37.9 °F 82% 30.09 in 10.0 mi NNE 6.9 mph - N/A   Overcast
4:25 PM 42.8 °F 41.1 °F 39.2 °F 87% 30.07 in 2.5 mi NNE 3.5 mph - N/A   Overcast
4:33 PM 42.8 °F - 39.2 °F 87% 30.07 in 2.0 mi Calm Calm - N/A   Overcast
4:55 PM 41.0 °F 38.0 °F 39.9 °F 96% 30.09 in 2.0 mi North 4.6 mph - 0.00 in Rain Light Rain
5:16 PM 41.0 °F - 39.2 °F 93% 30.07 in 4.0 mi Calm Calm - 0.00 in   Overcast
5:23 PM 41.0 °F 39.0 °F 39.2 °F 93% 30.07 in 5.0 mi NE 3.5 mph - 0.00 in   Overcast
5:52 PM 41.0 °F 39.0 °F 39.2 °F 93% 30.08 in 8.0 mi NNE 3.5 mph - 0.00 in   Overcast
5:55 PM 41.0 °F 39.0 °F 39.9 °F 96% 30.10 in 8.0 mi North 3.5 mph - 0.00 in   Overcast
6:13 PM 41.0 °F 39.0 °F 39.2 °F 93% 30.08 in 7.0 mi North 3.5 mph - N/A   Overcast
6:51 PM 41.0 °F 38.0 °F 39.2 °F 93% 30.10 in 10.0 mi NNW 4.6 mph - N/A   Overcast
6:55 PM 41.0 °F 37.1 °F 39.9 °F 96% 30.12 in 10.0 mi NNW 5.8 mph - N/A   Overcast
7:42 PM 42.8 °F 40.1 °F 39.2 °F 87% 30.10 in 10.0 mi North 4.6 mph - N/A   Overcast
7:55 PM 42.1 °F 40.2 °F 39.9 °F 92% 30.12 in 9.0 mi NNE 3.5 mph - 0.00 in Rain Light Rain
8:55 PM 42.1 °F 40.2 °F 39.9 °F 92% 30.13 in 9.0 mi NNE 3.5 mph - 0.00 in   Overcast
9:41 PM 42.8 °F - 41.0 °F 93% 30.11 in 4.0 mi Calm Calm - N/A   Overcast
9:55 PM 42.1 °F 40.2 °F 41.0 °F 96% 30.13 in 6.0 mi North 3.5 mph - N/A   Overcast
10:53 PM 42.8 °F 40.1 °F 41.0 °F 93% 30.12 in 9.0 mi NNE 4.6 mph - N/A   Overcast
10:55 PM 42.1 °F 40.2 °F 41.0 °F 96% 30.14 in 9.0 mi NE 3.5 mph - N/A   Overcast
11:34 PM 42.8 °F - 41.0 °F 93% 30.13 in 9.0 mi Calm Calm - N/A   Overcast
11:42 PM 42.8 °F - 41.0 °F 93% 30.13 in 10.0 mi Calm Calm - N/A   Overcast
11:52 PM 42.8 °F 41.1 °F 41.0 °F 93% 30.13 in 10.0 mi NE 3.5 mph - N/A   Overcast
11:55 PM 42.1 °F - 39.9 °F 92% 30.15 in 10.0 mi Calm Calm - N/A   Overcast